Time,TemperatureF,DewpointF,PressureIn,WindDirection,WindDirectionDegrees,WindSpeedMPH,WindSpeedGustMPH,Humidity,HourlyPrecipIn,Conditions,Clouds,dailyrainin,SoftwareType,DateUTC
2013-07-12 00:02:00,72.0,61.0,-100.00,South,190,12.0,19.0,67,0.00,,,0.00,,2013-07-12 05:02:00,
2013-07-12 00:11:00,72.0,61.0,-100.00,South,190,14.0,17.0,67,0.00,,,0.00,,2013-07-12 05:11:00,
2013-07-12 00:22:00,72.0,61.0,-100.00,SSW,195,14.0,18.0,67,0.00,,,0.00,,2013-07-12 05:22:00,
2013-07-12 00:32:00,72.0,61.0,-100.00,South,190,15.0,20.0,67,0.00,,,0.00,,2013-07-12 05:32:00,
2013-07-12 00:53:00,73.0,61.0,-100.00,SSW,200,13.0,19.0,64,0.00,,,0.00,,2013-07-12 05:53:00,
2013-07-12 01:01:00,73.0,61.0,-100.00,SSW,200,14.0,19.0,63,0.00,,,0.00,,2013-07-12 06:01:00,
2013-07-12 01:22:00,73.0,61.0,-100.00,South,190,14.0,21.0,62,0.00,,,0.00,,2013-07-12 06:22:00,
2013-07-12 01:52:00,74.0,59.0,-100.00,SSW,195,17.0,23.0,61,0.00,,,0.00,,2013-07-12 06:52:00,
2013-07-12 02:22:00,73.0,59.0,-100.00,SSW,200,16.0,23.0,61,0.00,,,0.00,,2013-07-12 07:22:00,
2013-07-12 02:32:00,73.0,59.0,-100.00,SSW,200,18.0,29.0,61,0.00,,,0.00,,2013-07-12 07:32:00,
2013-07-12 02:52:00,73.0,59.0,-100.00,SSW,210,22.0,30.0,62,0.00,,,0.00,,2013-07-12 07:52:00,
2013-07-12 03:01:00,73.0,59.0,-100.00,SSW,200,20.0,25.0,62,0.00,,,0.00,,2013-07-12 08:01:00,
2013-07-12 03:11:00,73.0,59.0,-100.00,SSW,200,24.0,32.0,62,0.00,,,0.00,,2013-07-12 08:11:00,
2013-07-12 03:20:00,72.0,59.0,-100.00,SSW,200,17.0,26.0,63,0.00,,,0.00,,2013-07-12 08:20:00,
2013-07-12 03:21:00,72.0,59.0,-100.00,SSW,195,18.0,26.0,62,0.00,,,0.00,,2013-07-12 08:21:00,
2013-07-12 03:42:00,72.0,59.0,-100.00,SSW,200,17.0,26.0,63,0.00,,,0.00,,2013-07-12 08:42:00,
2013-07-12 03:53:00,72.0,59.0,-100.00,SSW,200,17.0,26.0,63,0.00,,,0.00,,2013-07-12 08:53:00,
2013-07-12 04:02:00,72.0,59.0,-100.00,SSW,200,17.0,26.0,63,0.00,,,0.00,,2013-07-12 09:02:00,
2013-07-12 04:12:00,72.0,59.0,-100.00,SSW,200,17.0,26.0,63,0.00,,,0.00,,2013-07-12 09:12:00,
2013-07-12 04:52:00,72.0,59.0,-100.00,SSW,205,17.0,29.0,63,0.00,,,0.00,,2013-07-12 09:52:00,
2013-07-12 05:22:00,71.0,59.0,-100.00,SSW,200,19.0,26.0,64,0.00,,,0.00,,2013-07-12 10:22:00,
2013-07-12 05:42:00,71.0,59.0,-100.00,SSW,200,18.0,25.0,64,0.00,,,0.00,,2013-07-12 10:42:00,
2013-07-12 05:52:00,71.0,59.0,-100.00,SSW,195,19.0,26.0,65,0.00,,,0.00,,2013-07-12 10:52:00,
2013-07-12 06:02:00,70.0,59.0,-100.00,SSW,205,16.0,26.0,65,0.00,,,0.00,,2013-07-12 11:02:00,
2013-07-12 06:11:00,70.0,59.0,-100.00,SSW,200,14.0,23.0,66,0.00,,,0.00,,2013-07-12 11:11:00,
2013-07-12 06:22:00,70.0,59.0,-100.00,South,190,16.0,20.0,67,0.00,,,0.00,,2013-07-12 11:22:00,
2013-07-12 07:01:00,69.0,59.0,-100.00,South,185,11.0,19.0,69,0.00,,,0.00,,2013-07-12 12:01:00,
2013-07-12 07:22:00,69.0,59.0,-100.00,South,180,13.0,17.0,69,0.00,,,0.00,,2013-07-12 12:22:00,
2013-07-12 07:52:00,71.0,61.0,-100.00,South,190,11.0,18.0,69,0.00,,,0.00,,2013-07-12 12:52:00,
2013-07-12 08:01:00,71.0,61.0,-100.00,South,180,13.0,18.0,68,0.00,,,0.00,,2013-07-12 13:01:00,
2013-07-12 08:22:00,72.0,61.0,-100.00,South,185,11.0,19.0,67,0.00,,,0.00,,2013-07-12 13:22:00,
2013-07-12 08:53:00,73.0,61.0,-100.00,SSW,205,15.0,21.0,65,0.00,,,0.00,,2013-07-12 13:53:00,
2013-07-12 09:02:00,74.0,61.0,-100.00,South,190,18.0,22.0,64,0.00,,,0.00,,2013-07-12 14:02:00,
2013-07-12 09:22:00,75.0,63.0,-100.00,South,190,16.0,22.0,63,0.00,,,0.00,,2013-07-12 14:22:00,
2013-07-12 10:01:00,77.0,63.0,-100.00,South,190,17.0,24.0,60,0.00,,,0.00,,2013-07-12 15:01:00,
2013-07-12 10:22:00,77.0,63.0,-100.00,South,185,16.0,26.0,59,0.00,,,0.00,,2013-07-12 15:22:00,
2013-07-12 10:33:00,78.0,63.0,-100.00,South,190,21.0,26.0,58,0.00,,,0.00,,2013-07-12 15:33:00,
2013-07-12 10:52:00,79.0,63.0,-100.00,South,190,18.0,27.0,58,0.00,,,0.00,,2013-07-12 15:52:00,
2013-07-12 11:01:00,79.0,63.0,-100.00,South,190,19.0,26.0,58,0.00,,,0.00,,2013-07-12 16:01:00,
2013-07-12 11:22:00,80.0,64.0,-100.00,South,185,22.0,28.0,58,0.00,,,0.00,,2013-07-12 16:22:00,
2013-07-12 11:32:00,80.0,64.0,-100.00,South,190,17.0,29.0,58,0.00,,,0.00,,2013-07-12 16:32:00,
2013-07-12 11:55:00,81.0,64.0,-100.00,South,175,21.0,29.0,57,0.00,,,0.00,,2013-07-12 16:55:00,
2013-07-12 12:23:00,82.0,64.0,-100.00,South,185,21.0,30.0,56,0.00,,,0.00,,2013-07-12 17:23:00,
2013-07-12 12:35:00,82.0,64.0,-100.00,South,185,23.0,29.0,56,0.00,,,0.00,,2013-07-12 17:35:00,
2013-07-12 13:05:00,83.0,66.0,-100.00,South,190,21.0,29.0,55,0.00,,,0.00,,2013-07-12 18:05:00,
2013-07-12 13:25:00,84.0,66.0,-100.00,South,180,22.0,32.0,53,0.00,,,0.00,,2013-07-12 18:25:00,
2013-07-12 13:54:00,85.0,66.0,-100.00,SSW,200,24.0,32.0,53,0.00,,,0.00,,2013-07-12 18:54:00,
2013-07-12 14:14:00,86.0,66.0,-100.00,SSW,195,21.0,34.0,53,0.00,,,0.00,,2013-07-12 19:14:00,
2013-07-12 14:22:00,86.0,66.0,-100.00,South,190,22.0,34.0,53,0.00,,,0.00,,2013-07-12 19:22:00,
2013-07-12 14:54:00,85.0,68.0,-100.00,South,190,24.0,34.0,54,0.00,,,0.00,,2013-07-12 19:54:00,
2013-07-12 15:13:00,86.0,68.0,-100.00,South,180,27.0,34.0,53,0.00,,,0.00,,2013-07-12 20:13:00,
2013-07-12 15:23:00,87.0,68.0,-100.00,South,180,21.0,37.0,53,0.00,,,0.00,,2013-07-12 20:23:00,
2013-07-12 15:33:00,87.0,68.0,-100.00,South,180,29.0,35.0,53,0.00,,,0.00,,2013-07-12 20:33:00,
2013-07-12 15:54:00,88.0,68.0,-100.00,South,185,24.0,34.0,53,0.00,,,0.00,,2013-07-12 20:54:00,
2013-07-12 16:14:00,88.0,70.0,-100.00,South,180,21.0,34.0,53,0.00,,,0.00,,2013-07-12 21:14:00,
2013-07-12 16:24:00,88.0,70.0,-100.00,South,185,22.0,34.0,54,0.00,,,0.00,,2013-07-12 21:24:00,
2013-07-12 16:54:00,87.0,70.0,-100.00,South,180,28.0,38.0,54,0.00,,,0.00,,2013-07-12 21:54:00,
2013-07-12 17:22:00,88.0,70.0,-100.00,South,190,21.0,34.0,55,0.00,,,0.00,,2013-07-12 22:22:00,
2013-07-12 17:33:00,88.0,70.0,-100.00,South,190,24.0,36.0,54,0.00,,,0.00,,2013-07-12 22:33:00,
2013-07-12 17:53:00,88.0,70.0,-100.00,SSW,195,22.0,33.0,54,0.00,,,0.00,,2013-07-12 22:53:00,
2013-07-12 18:03:00,88.0,70.0,-100.00,South,190,22.0,29.0,54,0.00,,,0.00,,2013-07-12 23:03:00,
2013-07-12 18:23:00,87.0,68.0,-100.00,South,190,21.0,29.0,54,0.00,,,0.00,,2013-07-12 23:23:00,
2013-07-12 18:33:00,86.0,68.0,-100.00,SSW,195,22.0,29.0,55,0.00,,,0.00,,2013-07-12 23:33:00,
2013-07-12 18:53:00,87.0,68.0,-100.00,SSW,195,18.0,24.0,55,0.00,,,0.00,,2013-07-12 23:53:00,
2013-07-12 19:04:00,87.0,68.0,-100.00,South,190,17.0,27.0,54,0.00,,,0.00,,2013-07-13 00:04:00,
2013-07-12 19:15:00,86.0,68.0,-100.00,SSW,195,24.0,29.0,54,0.00,,,0.00,,2013-07-13 00:15:00,
2013-07-12 19:24:00,86.0,68.0,-100.00,South,180,18.0,26.0,55,0.00,,,0.00,,2013-07-13 00:24:00,
2013-07-12 20:02:00,84.0,68.0,-100.00,South,190,14.0,19.0,58,0.00,,,0.00,,2013-07-13 01:02:00,
2013-07-12 20:24:00,83.0,68.0,-100.00,South,190,11.0,19.0,59,0.00,,,0.00,,2013-07-13 01:24:00,
2013-07-12 20:54:00,82.0,66.0,-100.00,South,185,13.0,19.0,60,0.00,,,0.00,,2013-07-13 01:54:00,
2013-07-12 21:04:00,82.0,66.0,-100.00,South,175,13.0,19.0,60,0.00,,,0.00,,2013-07-13 02:04:00,
2013-07-12 21:14:00,81.0,66.0,-100.00,South,180,14.0,20.0,60,0.00,,,0.00,,2013-07-13 02:14:00,
2013-07-12 21:22:00,81.0,66.0,-100.00,South,175,16.0,21.0,60,0.00,,,0.00,,2013-07-13 02:22:00,
2013-07-12 21:35:00,81.0,66.0,-100.00,South,180,16.0,21.0,61,0.00,,,0.00,,2013-07-13 02:35:00,
2013-07-12 21:53:00,81.0,66.0,-100.00,South,190,13.0,24.0,61,0.00,,,0.00,,2013-07-13 02:53:00,
2013-07-12 22:12:00,80.0,66.0,-100.00,South,190,16.0,21.0,61,0.00,,,0.00,,2013-07-13 03:12:00,
2013-07-12 22:25:00,81.0,66.0,-100.00,South,190,15.0,21.0,60,0.00,,,0.00,,2013-07-13 03:25:00,
2013-07-12 22:35:00,80.0,66.0,-100.00,South,180,14.0,21.0,60,0.00,,,0.00,,2013-07-13 03:35:00,
2013-07-12 22:54:00,80.0,66.0,-100.00,South,185,17.0,24.0,60,0.00,,,0.00,,2013-07-13 03:54:00,
2013-07-12 23:22:00,76.0,68.0,-100.00,NW,325,18.0,26.0,77,0.01,,,0.00,,2013-07-13 04:22:00,